Flag Weather past 2 weeks in Enschede, Netherlands

Now
55 °F

Passing clouds.


Feels Like: 53 °F
Forecast: 40 / 51 °F
Wind: 9 mph from South

Location: Deelen

Current Time: Nov 23, 2014 at 2:48:31 PM

Latest Report: Nov 23, 2014 at 2:25 PM


Visibility: N/A

Pressure: 29.98 "Hg

Humidity: 82%

Dew point: 50 °F

Location of EnschedeLocation

Historic Weather in Enschede — Graph

°F

Enschede temperature yesterday

Maximum temperature yesterday: 54 °F (at 2:25 PM)
Minimum temperature yesterday: 37 °F (at 6:25 AM)
Average temperature yesterday: 45 °F

Past Weeks' High & Low Weather Summary

 TemperatureHumidityPressure
High57 °F (Nov 23, 12:55 PM)100% (Nov 10, 2:55 AM)30.33 "Hg (Nov 10, 2:55 AM)
Low36 °F (Nov 21, 4:25 AM)67% (Nov 8, 1:25 PM)29.47 "Hg (Nov 16, 3:25 PM)
Average47 °F91%29.84 "Hg
* Reported Nov 8 1:25 PM — Nov 23 1:55 PM, Enschede, Weather by CustomWeather, © 2014

Note: Actual official high and low records may vary slightly from our data, if they occured in-between our weather recording intervals... More about our weather records

Advertising

Enschede weather history for previous 24 hours

 ConditionsComfort  
Time TempWeatherWind HumidityBarometerVisibility
1:55 PM
Nov 23
57 °FCool.12 mph77%29.98 "HgN/A
1:25 PM57 °FPassing clouds.12 mph77%29.98 "HgN/A
12:55 PM57 °FPassing clouds.8 mph77%30.01 "HgN/A
12:25 PM55 °FPassing clouds.7 mph82%30.01 "HgN/A
11:55 AM55 °FCool.7 mph77%30.01 "HgN/A
11:25 AM54 °FCool.8 mph82%30.04 "HgN/A
10:55 AM52 °FPassing clouds.7 mph88%30.04 "HgN/A
10:25 AM52 °FCool.7 mph82%30.04 "HgN/A
9:55 AM50 °FPassing clouds.5 mph88%30.04 "HgN/A
9:25 AM48 °FFog.8 mph94%30.04 "Hg6 mi
8:55 AM48 °FFog.7 mph94%30.04 "Hg5 mi
8:25 AM46 °FFog.6 mph93%30.04 "Hg5 mi
7:55 AM46 °FFog.9 mph93%30.04 "Hg4 mi
7:25 AM46 °FFog.6 mph93%30.04 "Hg4 mi
6:55 AM48 °FFog.6 mph94%30.04 "Hg6 mi
6:25 AM48 °FFog.5 mph94%30.04 "Hg5 mi
5:55 AM48 °FLight rain. Partly cloudy.8 mph94%30.04 "Hg5 mi
5:25 AM48 °FFog.5 mph94%30.04 "Hg4 mi
4:55 AM48 °FFog.3 mph94%30.04 "Hg4 mi
4:25 AM48 °FFog.3 mph94%30.04 "Hg5 mi
3:55 AM48 °FFog.2 mph94%30.07 "Hg5 mi
3:25 AM48 °FFog.3 mph94%30.07 "Hg6 mi
2:55 AM48 °FFog.5 mph94%30.04 "Hg6 mi
2:25 AM48 °FFog.5 mph94%30.04 "Hg5 mi
1:55 AM48 °FFog.5 mph94%30.04 "Hg5 mi
1:25 AM48 °FFog.6 mph94%30.04 "Hg5 mi
12:55 AM48 °FFog.5 mph87%30.04 "Hg5 mi
12:25 AM46 °FFog.5 mph93%30.07 "Hg6 mi
11:55 PM
Nov 22
48 °FFog.3 mph94%30.07 "Hg6 mi
11:25 PM48 °FFog.6 mph94%30.04 "Hg6 mi
10:55 PM48 °FFog.6 mph94%30.04 "Hg6 mi
10:25 PM48 °FFog.5 mph94%30.04 "Hg5 mi
9:55 PM48 °FFog.5 mph94%30.04 "Hg5 mi
9:25 PM48 °FFog.5 mph94%30.04 "Hg5 mi
8:55 PM48 °FFog.3 mph94%30.04 "Hg5 mi
8:25 PM48 °FFog.3 mph94%30.04 "Hg5 mi
7:55 PM50 °FFog.6 mph88%30.04 "Hg5 mi
7:25 PM48 °FFog.5 mph94%30.04 "Hg5 mi
6:55 PM48 °FFog.6 mph94%30.04 "Hg6 mi
6:25 PM48 °FFog.6 mph94%30.04 "Hg6 mi
5:55 PM48 °FOvercast.6 mph87%30.04 "HgN/A
5:25 PM50 °FOvercast.6 mph82%30.04 "HgN/A
4:55 PM50 °FOvercast.6 mph88%30.04 "HgN/A
4:25 PM50 °FMostly cloudy.6 mph88%30.04 "HgN/A
3:55 PM52 °FPartly sunny.3 mph82%30.04 "HgN/A
3:25 PM52 °FCool.7 mph82%30.01 "HgN/A
2:55 PM54 °FPassing clouds.8 mph77%30.01 "HgN/A
2:25 PM54 °FOvercast.6 mph77%30.04 "HgN/A
Weather by CustomWeather, © 2014

See weather overviewHow to use our weather pages